Find Starlink 35003

NORAD ID: 65413 Int'l Des: 2025-192 Owner: SPXS Country: US Constellation: starlink operational
LEOCIRCULAR

現在のビュー

3D地球を読み込み中...

Starlink 35003について

説明を読み込み中...

次回通過

Passes for default location (London). Set your location on the main map for personalized predictions.

高度履歴

Loading altitude history...

軌道要素

1 65413U 25192K 26149.57571616 .00022006 00000-0 75257-3 0 9997
2 65413 53.1592 216.9656 0001305 76.1124 284.0022 15.30214001 41764
Epoch: May 29, 2026 • Age: 10 hours

現在のステータス

高度 475.8 km
速度 7.63 km/s
衛星直下点 3.05°N, 145.37°E
打ち上げ日 Aug 31, 2025
運用期間 0.7 years
タイプ internet

技術仕様

分類 Payload
質量 575.00 kg
乾燥質量 530.00 kg
総質量 575.00 kg
長さ 0.30 m
直径 4.10 m
スパン 29.00 m
形状 Box + pan
製造者 SPXS
バスタイプ Starlink V2MO
フェーズステータス In Orbit
所有者/国 SPXS/US

Most Searched